Location: Bailleul
(50.3375°N, 2.8513°E)
Time: 09:58:05
(UTC+00:00)

BREEZE M DEB (TANK) - Pass Details

Date: 19 April 2021
Orbit: 273 x 14498 km, 49.5° (Epoch: 05 May)

Event Time Altitude Azimuth Distance (km) Brightness Sun altitude
Rises 20:56:58 0° 250° (WSW) 6,025 7.9 -17.9°
Reaches altitude 10° 21:02:37 10° 249° (WSW) 3,492 6.6 -18.5°
Maximum altitude 21:09:13 64° 169° (S) 612 2.2 -19.2°
Enters shadow 21:09:39 57° 126° (SE) 611 2.1 -19.2°
